SQ6ELQ-11 Weather Reports


Display with metric or nautical units.
time (UTC)temp
F
wind
direction
speed
MPH
gust
MPH
rain 1hr
in
rain 24hr
in
rain mn
in
humidity
%
barometer
mb
20260507005805 50 0 0.0 0.0 0.00 0.00 0.00 81 1007.2
20260507003950 50 0 0.0 0.0 0.00 0.00 0.00 81 1007.3
20260507002236 51 0 0.0 0.0 0.00 0.00 0.00 82 1007.4
20260507000416 51 0 0.0 0.0 0.00 0.00 0.00 81 1007.8
20260506234615 51 0 0.0 0.0 0.00 0.00 0.00 82 1008.0
20260506232711 51 0 0.0 0.0 0.00 0.00 0.00 81 1008.2
20260506231016 51 0 0.0 0.0 0.00 0.00 0.00 82 1008.2
20260506225131 51 0 0.0 0.0 0.00 0.00 0.00 81 1008.0
20260506223335 51 0 0.0 0.0 0.00 0.00 0.00 81 1007.8
20260506221501 52 0 0.0 0.0 0.00 0.00 0.00 81 1007.9
20260506215748 52 0 0.0 0.0 0.00 0.00 0.00 81 1007.7
20260506214011 52 0 0.0 0.0 0.00 0.00 0.00 80 1007.9
20260506212156 52 0 0.0 0.0 0.00 0.00 0.00 77 1007.6
20260506210431 52 0 0.0 0.0 0.00 0.00 0.00 75 1007.4
20260506204708 51 0 0.0 0.0 0.00 0.00 0.00 77 1007.3
20260506203011 52 0 0.0 0.0 0.00 0.00 0.00 77 1007.1
20260506201241 52 0 0.0 0.0 0.00 0.00 0.00 78 1006.9
20260506195421 52 0 0.0 0.0 0.00 0.00 0.00 79 1007.0
20260506193646 52 0 0.0 0.0 0.00 0.00 0.00 76 1007.3
20260506191844 52 0 0.0 0.0 0.00 0.00 0.00 75 1007.1
20260506185941 52 0 0.0 0.0 0.00 0.00 0.00 73 1007.9
20260506184136 52 0 0.0 0.0 0.00 0.00 0.00 73 1007.4
20260506182321 53 0 0.0 0.0 0.00 0.00 0.00 74 1006.7
20260506180556 55 0 0.0 0.0 0.00 0.00 0.00 75 1006.8
20260506174744 56 0 0.0 0.0 0.00 0.00 0.00 74 1007.2
20260506173021 57 0 0.0 0.0 0.00 0.00 0.00 74 1007.1
20260506171341 59 0 0.0 0.0 0.00 0.00 0.00 63 1006.5
20260506165426 59 0 0.0 0.0 0.00 0.00 0.00 60 1006.1
20260506163646 60 0 0.0 0.0 0.00 0.00 0.00 59 1006.4
20260506161824 65 0 0.0 0.0 0.00 0.00 0.00 55 1006.7
20260506154126 66 0 0.0 0.0 0.00 0.00 0.00 34 1006.7
20260506152311 72 0 0.0 0.0 0.00 0.00 0.00 27 1006.6
20260506150516 73 0 0.0 0.0 0.00 0.00 0.00 27 1006.4
20260506144627 73 0 0.0 0.0 0.00 0.00 0.00 28 1006.5
20260506143001 73 0 0.0 0.0 0.00 0.00 0.00 27 1006.5
20260506141131 72 0 0.0 0.0 0.00 0.00 0.00 27 1006.6
20260506135350 75 0 0.0 0.0 0.00 0.00 0.00 26 1006.8
20260506133649 69 0 0.0 0.0 0.00 0.00 0.00 33 1007.1
20260506131925 68 0 0.0 0.0 0.00 0.00 0.00 34 1007.3
20260506130125 70 0 0.0 0.0 0.00 0.00 0.00 36 1007.2
20260506124518 71 0 0.0 0.0 0.00 0.00 0.00 36 1007.3
20260506122536 69 0 0.0 0.0 0.00 0.00 0.00 37 1007.5
20260506120606 67 0 0.0 0.0 0.00 0.00 0.00 40 1007.5
20260506114633 65 0 0.0 0.0 0.00 0.00 0.00 40 1007.3
20260506112820 65 0 0.0 0.0 0.00 0.00 0.00 41 1007.3
20260506111043 64 0 0.0 0.0 0.00 0.00 0.00 43 1007.4
20260506105326 63 0 0.0 0.0 0.00 0.00 0.00 44 1007.5
20260506103536 63 0 0.0 0.0 0.00 0.00 0.00 46 1007.4
20260506101744 62 0 0.0 0.0 0.00 0.00 0.00 46 1007.5
20260506100018 61 0 0.0 0.0 0.00 0.00 0.00 45 1007.4
20260506094201 61 0 0.0 0.0 0.00 0.00 0.00 47 1007.4
20260506092350 60 0 0.0 0.0 0.00 0.00 0.00 50 1007.4
20260506090450 59 0 0.0 0.0 0.00 0.00 0.00 50 1007.3
20260506084636 61 0 0.0 0.0 0.00 0.00 0.00 51 1007.2
20260506082906 59 0 0.0 0.0 0.00 0.00 0.00 52 1007.0
20260506081155 59 0 0.0 0.0 0.00 0.00 0.00 53 1006.9
20260506073511 58 0 0.0 0.0 0.00 0.00 0.00 56 1006.8
20260506071646 57 0 0.0 0.0 0.00 0.00 0.00 57 1006.6
20260506062056 56 0 0.0 0.0 0.00 0.00 0.00 59 1006.6
20260506060125 56 0 0.0 0.0 0.00 0.00 0.00 61 1006.3
20260506051013 55 0 0.0 0.0 0.00 0.00 0.00 63 1005.7
20260506043520 55 0 0.0 0.0 0.00 0.00 0.00 64 1005.6
20260506041806 55 0 0.0 0.0 0.00 0.00 0.00 63 1005.4
20260506035911 55 0 0.0 0.0 0.00 0.00 0.00 61 1005.3
20260506034103 55 0 0.0 0.0 0.00 0.00 0.00 59 1005.5
20260506032226 55 0 0.0 0.0 0.00 0.00 0.00 60 1005.4
20260506030506 54 0 0.0 0.0 0.00 0.00 0.00 61 1005.5
20260506024541 53 0 0.0 0.0 0.00 0.00 0.00 64 1005.4
20260506022901 53 0 0.0 0.0 0.00 0.00 0.00 64 1005.4
20260506021201 54 0 0.0 0.0 0.00 0.00 0.00 65 1005.6
20260506015451 54 0 0.0 0.0 0.00 0.00 0.00 64 1006.3
20260506013541 54 0 0.0 0.0 0.00 0.00 0.00 63 1006.3
20260506011831 52 0 0.0 0.0 0.00 0.00 0.00 69 1006.3